[[{"header":{"parameterUnit":"m.s-1","parameterCategory":1,"la1":30.2991,"la2":30.254,"lo1":-89.0895,"lo2":-89.0444,"dy":0.0017,"dx":0.0017,"nx":28,"ny":28,"refTime":"2025-09-16T09:00:00:Z","depth":0,"parameterNumber":2,"parameterNumberName":"U-component_of_WINDS"},"data":[0,0,0,0,0,0,0,0,0,0,0,0,0,0,0,0,0,0,0,0,0,0,0,0,0,0,0,0,0,0,0,0,0,0,0,0,0,0,0,0,0,0,0,0,0,0,0,0,0,0,0,0,0,0,0,0,0,0,0.4165,0.4165,0,0.4123,0.4122,0.4122,0.4097,0.4097,0.4097,0.4097,0.4054,0.4053,0.4052,0,0,0,0,0,0,0,0,0,0,0,0,0,0.4225,0.4224,0.4165,0.4164,0.4164,0.4123,0.4122,0.4122,0.4097,0.4097,0.4097,0.4097,0.4054,0.4053,0.4052,0,0,0,0,0,0,0,0,0,0,0,0,0,0.4193,0.4224,0.4165,0.4147,0.4145,0.4123,0.4122,0.4121,0.4097,0.4097,0.4097,0.4097,0.4055,0.4053,0.4052,0.4045,0,0,0.4047,0.4046,0,0,0,0,0,0,0,0,0.4195,0.4191,0.415,0.4148,0.4146,0.4115,0.4128,0.4096,0.4097,0.4115,0.4097,0.4097,0.4075,0.4071,0.4064,0.4043,0.4041,0.4047,0.4046,0.4045,0.4045,0,0,0,0,0,0,0,0.4197,0.4192,0.4148,0.4149,0.4147,0.4141,0.4136,0.4122,0.4096,0.4114,0.4112,0.4107,0.4073,0.4065,0.4063,0.4041,0.4047,0.4046,0.4045,0.4044,0.4012,0.4012,0,0,0,0,0,0,0.4202,0.4194,0.415,0.4147,0.417,0.414,0.4135,0.4125,0.4096,0.4092,0.4107,0.4106,0.4068,0.4064,0.4061,0.4051,0.4045,0.4044,0.4043,0.4012,0.4012,0.4012,0,0,0,0,0,0,0.4203,0.4198,0.4151,0.417,0.4164,0.4139,0.4128,0.4124,0.4116,0.4091,0.4087,0.4104,0.4068,0.4063,0.4049,0.4049,0.4043,0.4042,0.4012,0.4012,0.4012,0.4031,0,0,0,0,0,0,0.4205,0.4199,0.4196,0.417,0.4163,0.414,0.4128,0.4123,0.4113,0.4112,0.4087,0.4083,0.4067,0.4052,0.4048,0.4047,0.404,0.4012,0.4012,0.4012,0.4031,0.4032,0.4033,0,0,0,0,0,0.4208,0.4203,0.4196,0.4191,0.4159,0.414,0.4136,0.4118,0.4114,0.411,0.4095,0.4083,0.405,0.405,0.4046,0.4045,0.4012,0.4012,0.4012,0.403,0.4032,0.4033,0,0,0,0,0,0,0.423,0.42,0.4191,0.4178,0.4162,0.4136,0.4132,0.4121,0.4105,0.4104,0.4083,0.4078,0.4066,0.4054,0.4055,0.4036,0.403,0.4029,0.4045,0.4046,0.4048,0.4051,0.4039,0,0,0,0,0,0.4233,0.4221,0.4195,0.4186,0.4178,0.4157,0.4148,0.4136,0.4118,0.4111,0.4094,0.4077,0.4063,0.4054,0.4039,0.4029,0.4023,0.4026,0.4027,0.4028,0.4028,0.4021,0.4022,0.4013,0.4013,0.4013,0,0,0.424,0.4222,0.4216,0.419,0.4176,0.4164,0.4151,0.4138,0.4129,0.4109,0.4095,0.4082,0.4062,0.4049,0.4043,0.4039,0.4029,0.4029,0.403,0.4029,0.4022,0.4022,0.4023,0.4013,0.4013,0.4013,0,0,0.4247,0.4232,0.4223,0.4209,0.4188,0.4173,0.4171,0.4146,0.4137,0.4122,0.4107,0.4095,0.4071,0.4058,0.4047,0.4049,0.4038,0.4045,0.4052,0.4046,0.4046,0.4047,0.4047,0.4048,0.4044,0.4044,0.4044,0,0.4258,0.4239,0.422,0.4208,0.4197,0.4178,0.4169,0.4157,0.4132,0.4125,0.4121,0.409,0.4075,0.4059,0.4059,0.4052,0.4049,0.4047,0.4048,0.4048,0.4048,0.4048,0.4049,0.4045,0.4045,0.4045,0.4045,0,0.4254,0.4241,0.4236,0.4212,0.4201,0.4191,0.417,0.4161,0.415,0.4136,0.4121,0.4102,0.4084,0.4079,0.4068,0.4061,0.4059,0.4052,0.4044,0.4051,0.405,0.405,0.4047,0.4046,0.4046,0.4046,0,0,0.4273,0.4239,0.4238,0.4227,0.4202,0.4191,0.418,0.4161,0.4154,0.4138,0.4128,0.4107,0.41,0.4089,0.4076,0.407,0.4072,0.4063,0.4062,0.4065,0.4064,0.407,0.407,0.4065,0.4065,0.4065,0.4065,0,0.4276,0.4255,0.4237,0.4223,0.421,0.4192,0.4182,0.4166,0.4153,0.414,0.4125,0.4111,0.4103,0.4096,0.4089,0.4073,0.4072,0.4073,0.4055,0.4055,0.4061,0.407,0.4076,0.4078,0.4065,0.4065,0.4065,0,0.4277,0.4261,0.4245,0.4221,0.4215,0.4207,0.4188,0.4176,0.4158,0.4148,0.4135,0.4122,0.4109,0.4103,0.4085,0.4087,0.4078,0.4069,0.4069,0.4067,0.406,0.4068,0.4078,0.4078,0.4065,0.4065,0.4065,0,0.4292,0.4267,0.4254,0.4245,0.4217,0.4212,0.42,0.4181,0.4171,0.4154,0.4148,0.413,0.4121,0.4108,0.409,0.4087,0.4074,0.4067,0.4066,0.4066,0.4064,0.4064,0.4073,0.4059,0.4059,0.4059,0.4059,0,0.4297,0.4288,0.4261,0.4253,0.4242,0.4222,0.4212,0.4199,0.4182,0.4171,0.4154,0.4145,0.4122,0.4109,0.4095,0.4082,0.4078,0.407,0.4067,0.4072,0.4073,0.4066,0.4066,0.4059,0.4059,0.4059,0.4059,0,0.4313,0.4294,0.4279,0.4254,0.4247,0.424,0.4219,0.421,0.4196,0.4182,0.4178,0.4155,0.414,0.4121,0.4099,0.4089,0.4078,0.4073,0.4084,0.4082,0.4083,0.4083,0.4087,0.4086,0.4073,0.4073,0.4073,0,0.4318,0.431,0.4284,0.4276,0.4264,0.4251,0.424,0.422,0.421,0.4188,0.4182,0.4165,0.4151,0.4126,0.4108,0.4091,0.4085,0.4088,0.4083,0.4088,0.4085,0.4086,0.4085,0.4089,0.4089,0.409,0.409,0,0.4327,0.4318,0.4304,0.4286,0.4274,0.426,0.4244,0.4238,0.4215,0.4204,0.4188,0.4177,0.4154,0.4138,0.4118,0.4106,0.4094,0.4091,0.409,0.4096,0.4103,0.4099,0.4088,0.4092,0.4091,0.4091,0.4091,0.4091,0.4338,0.433,0.4311,0.4295,0.4281,0.4267,0.4258,0.4242,0.4228,0.4209,0.4198,0.4182,0.4163,0.4135,0.4124,0.4111,0.4106,0.4105,0.4104,0.4104,0.4106,0.4105,0.4107,0.4107,0.4107,0.4107,0.4107,0,0.4347,0.4333,0.4319,0.4298,0.4286,0.4275,0.4257,0.4248,0.4234,0.4217,0.4203,0.4184,0.4168,0.4148,0.4131,0.4124,0.4118,0.412,0.412,0.4118,0.4111,0.4113,0.4125,0.4125,0.4125,0.4125,0.4125,0.4125,0.435,0.4337,0.4325,0.4305,0.4292,0.4276,0.4267,0.4253,0.424,0.422,0.4206,0.4193,0.4175,0.4156,0.414,0.4135,0.4129,0.4133,0.4126,0.412,0.4118,0.4117,0.4119,0.4132,0.4132,0.4133,0.4133,0.4134]},{"header":{"parameterUnit":"m.s-1","parameterCategory":1,"la1":30.2991,"la2":30.254,"lo1":-89.0895,"lo2":-89.0444,"dy":0.0017,"dx":0.0017,"nx":28,"ny":28,"refTime":"2025-09-16T09:00:00:Z","depth":0,"parameterNumber":3,"parameterNumberName":"V-component_of_WINDS"},"data":[0,0,0,0,0,0,0,0,0,0,0,0,0,0,0,0,0,0,0,0,0,0,0,0,0,0,0,0,0,0,0,0,0,0,0,0,0,0,0,0,0,0,0,0,0,0,0,0,0,0,0,0,0,0,0,0,0,0,1.8993,1.8993,0,1.8981,1.8981,1.8981,1.8971,1.8971,1.8971,1.8971,1.8956,1.8956,1.8955,0,0,0,0,0,0,0,0,0,0,0,0,0,1.9,1.9,1.8993,1.8993,1.8993,1.8982,1.8981,1.8981,1.8971,1.8971,1.8971,1.8971,1.8956,1.8956,1.8955,0,0,0,0,0,0,0,0,0,0,0,0,0,1.8993,1.9,1.8993,1.8986,1.8986,1.8982,1.8981,1.8981,1.8971,1.8971,1.8971,1.8971,1.8956,1.8956,1.8955,1.8956,0,0,1.8954,1.8954,0,0,0,0,0,0,0,0,1.8994,1.8993,1.8987,1.8987,1.8986,1.8978,1.8978,1.8973,1.8971,1.8976,1.8971,1.897,1.8963,1.8962,1.896,1.8955,1.8955,1.8954,1.8954,1.8953,1.8953,0,0,0,0,0,0,0,1.8994,1.8993,1.8988,1.8987,1.8986,1.8982,1.8981,1.8977,1.8971,1.8976,1.8975,1.8974,1.8963,1.8961,1.896,1.8954,1.8954,1.8954,1.8953,1.8953,1.8944,1.8944,0,0,0,0,0,0,1.8996,1.8994,1.8989,1.8988,1.899,1.8982,1.8981,1.898,1.8971,1.8969,1.8974,1.8974,1.8961,1.896,1.8959,1.8956,1.8953,1.8953,1.8953,1.8944,1.8944,1.8944,0,0,0,0,0,0,1.8996,1.8996,1.8989,1.8991,1.8989,1.8982,1.8982,1.898,1.8978,1.897,1.8968,1.8974,1.8961,1.896,1.8956,1.8956,1.8953,1.8952,1.8944,1.8944,1.8944,1.8953,0,0,0,0,0,0,1.8997,1.8996,1.8998,1.8991,1.8989,1.8988,1.8982,1.898,1.8978,1.8977,1.8969,1.8967,1.8961,1.8957,1.8956,1.8955,1.8952,1.8944,1.8944,1.8944,1.8953,1.8953,1.8954,0,0,0,0,0,1.8997,1.9001,1.8998,1.8998,1.8992,1.8988,1.8987,1.8981,1.8978,1.8979,1.8972,1.8967,1.8956,1.8956,1.8955,1.8955,1.8944,1.8944,1.8944,1.8952,1.8953,1.8954,0,0,0,0,0,0,1.9008,1.9,1.8997,1.8999,1.8994,1.8987,1.8987,1.8983,1.8978,1.8977,1.8968,1.8967,1.8963,1.8958,1.8959,1.8952,1.8949,1.8949,1.8956,1.8956,1.8957,1.8958,1.8952,0,0,0,0,0,1.9011,1.901,1.9003,1.9005,1.9003,1.8995,1.8994,1.8989,1.8983,1.8981,1.8975,1.8968,1.8962,1.8959,1.8954,1.8952,1.8948,1.895,1.8951,1.8951,1.8951,1.8945,1.8945,1.8945,1.8945,1.8945,0,0,1.9017,1.9012,1.9013,1.9007,1.9003,1.9,1.8994,1.8992,1.8989,1.898,1.8976,1.8971,1.8962,1.8958,1.8956,1.8954,1.895,1.8951,1.8952,1.8951,1.8945,1.8946,1.8946,1.8945,1.8945,1.8945,0,0,1.9026,1.9023,1.9024,1.9019,1.9012,1.9007,1.9006,1.8998,1.8995,1.899,1.8982,1.8977,1.8969,1.8963,1.8958,1.896,1.8954,1.8958,1.8961,1.8956,1.8956,1.8956,1.8954,1.8953,1.8958,1.8958,1.8958,0,1.9034,1.9031,1.9024,1.9022,1.9018,1.901,1.9008,1.9003,1.8995,1.8992,1.899,1.8977,1.8971,1.8963,1.8963,1.8961,1.8958,1.8959,1.8957,1.8956,1.8956,1.8954,1.8954,1.8958,1.8958,1.8958,1.8958,0,1.9039,1.9036,1.9037,1.9029,1.9025,1.9023,1.9014,1.901,1.9005,1.8998,1.8992,1.8984,1.8975,1.8973,1.8968,1.8963,1.8962,1.8959,1.8955,1.8957,1.8954,1.8954,1.8959,1.8959,1.8959,1.8959,0,0,1.9056,1.9042,1.9043,1.9037,1.9027,1.9024,1.902,1.9012,1.9008,1.9001,1.8995,1.8987,1.8982,1.8977,1.8971,1.8966,1.8964,1.8963,1.8962,1.8961,1.8954,1.8956,1.8956,1.896,1.896,1.896,1.8954,0,1.9062,1.9056,1.9048,1.9043,1.9038,1.9029,1.9024,1.9016,1.9009,1.9003,1.8994,1.8987,1.8983,1.898,1.8975,1.8965,1.8962,1.8966,1.8952,1.8952,1.8954,1.8955,1.8958,1.8953,1.8954,1.8953,1.8953,0,1.9069,1.9062,1.9057,1.9044,1.9041,1.9038,1.9028,1.9023,1.9012,1.9007,1.8999,1.8992,1.8983,1.8981,1.8967,1.897,1.8963,1.8957,1.8957,1.8955,1.8952,1.8951,1.8952,1.8951,1.8952,1.8952,1.8953,0,1.9079,1.9068,1.9063,1.9059,1.9045,1.9042,1.9035,1.9025,1.9019,1.9009,1.9004,1.8994,1.8988,1.8978,1.8967,1.8967,1.8954,1.8951,1.8947,1.8947,1.8945,1.8945,1.8943,1.8943,1.8943,1.8943,1.8943,0,1.9085,1.9082,1.9067,1.9064,1.9058,1.9048,1.9042,1.9034,1.9024,1.9017,1.9007,1.9,1.8987,1.8977,1.8968,1.8956,1.8954,1.8948,1.8945,1.8948,1.8949,1.8943,1.8943,1.8943,1.8943,1.8943,1.8943,0,1.9096,1.9086,1.9079,1.9065,1.9062,1.9058,1.9045,1.904,1.9031,1.9022,1.9019,1.9005,1.8993,1.898,1.8964,1.8958,1.8946,1.8943,1.895,1.8948,1.8944,1.8944,1.8938,1.8935,1.8938,1.8938,1.8938,0,1.91,1.9097,1.9082,1.9077,1.9071,1.9063,1.9056,1.9045,1.9038,1.9023,1.9019,1.9006,1.8995,1.8976,1.8963,1.8949,1.8945,1.8944,1.8943,1.8945,1.8943,1.8942,1.8941,1.8944,1.8944,1.8944,1.8944,0,1.9108,1.9102,1.9094,1.9083,1.9076,1.9067,1.9057,1.9052,1.9038,1.903,1.9018,1.901,1.8992,1.8978,1.8963,1.8953,1.8945,1.8944,1.8942,1.8945,1.8948,1.8944,1.8949,1.8945,1.8945,1.8945,1.8945,1.8945,1.9114,1.911,1.9098,1.9088,1.9079,1.9069,1.9062,1.9052,1.9042,1.9027,1.902,1.9007,1.8992,1.897,1.8961,1.8948,1.8946,1.8944,1.8943,1.8942,1.8942,1.8951,1.8946,1.8946,1.8945,1.8945,1.8945,0,1.9119,1.9111,1.9102,1.9087,1.9079,1.9072,1.906,1.9052,1.9041,1.9029,1.9018,1.9001,1.8987,1.8972,1.8956,1.8949,1.8944,1.8945,1.8945,1.8942,1.8946,1.8948,1.8948,1.8948,1.8948,1.8948,1.8948,1.8948,1.9121,1.9112,1.9104,1.9089,1.908,1.9068,1.906,1.905,1.904,1.9022,1.901,1.9001,1.8986,1.8968,1.8954,1.8949,1.8943,1.8944,1.8938,1.8942,1.8942,1.8942,1.8944,1.8943,1.8943,1.8935,1.8935,1.8935]}]]